CAPE
0 0 0 0 0 0 0 0 0 0 0 0 0 0 0 0 0 0 3 3 2 3 3 2 4 7 5
0 0 0 0 0 0 0 0 0 1 0 0 0 0 0 0 0 1 4 2 1 1 3 3 3 3 4
0 0 0 0 0 0 0 0 0 0 2 1 0 0 0 0 0 0 0 0 0 0 0 1 1 3 6
0 0 0 0 0 0 0 0 0 0 0 0 0 1 0 0 2 3 3 1 1 1 0 0 0 0 0
1 1 1 1 1 1 0 0 0 0 0 0 0 0 0 2 3 3 0 1 1 0 0 0 0 0 0
0 0 1 1 2 1 1 1 0 2 1 0 0 0 0 0 0 0 1 3 3 2 1 1 1 1 1
1 1 1 1 1 1 2 2 2 1 0 0 0 0 0 0 0 0 4 8 6 3 1 0 1 0 0
0 0 1 1 2 2 2 2 1 0 0 0 0 0 0 0 0 8 10 8 0 0 0 0 0 1 3
3 3 0 0 4 5 2 1 3 1 0 0 0 0 0 0 0 0 4 2 0 0 1 1 1 3 5
0 0 0 0 1 0 1 2 1 1 0 0 0 0 0 0 0 0 0 0 0 0 2 1 2 5 5
2 2 0 1 3 1 0 0 1 3 0 0 0 0 0 0 0 0 0 0 0 0 0 0 1 3 2
0 2 3 3 2 3 6 4 3 0 0 0 2 0 0 0 0 0 0 0 0 0 0 0 0 0 0
0 4 3 1 0 3 2 1 2 2 13 3 1 0 1 2 1 0 0 1 0 0 0 0 0 0 0
0 0 0 3 3 6 7 4 5 2 0 2 2 5 5 4 2 2 1 1 1 0 0 0 0 0 0
0 0 0 0 1 3 3 3 13 9 4 2 3 10 11 8 9 4 6 4 0 0 0 0 0 0 0
0 0 0 0 0 0 0 3 5 4 4 4 4 3 1 0 2 7 4 6 4 4 5 17 11 6 2
0 0 0 0 0 0 0 0 1 2 2 2 5 9 6 4 0 0 12 8 4 4 7 15 14 8 6
CIN
0 0 0 0 0 0 0 0 0 0 0 0 0 0 0 0 0 0 0 0 0 0 0 0 0 0 0
0 0 0 0 0 0 0 0 0 -1 0 0 0 0 0 0 0 0 0 0 0 0 0 0 0 0 0
0 0 0 0 0 0 0 0 0 0 -1 0 0 0 0 0 0 0 0 0 0 0 0 0 0 0 0
0 0 0 0 0 0 0 0 0 0 0 0 -1 -1 0 0 0 -1 0 0 0 0 0 0 0 0 0
0 0 0 0 0 0 0 0 0 0 0 0 0 0 0 -1 -2 -2 0 0 0 0 0 0 0 0 0
0 0 0 0 0 0 0 0 0 0 0 0 0 0 0 0 0 0 0 0 0 0 0 0 0 0 0
0 0 0 0 0 0 0 0 0 0 0 0 0 0 0 0 0 0 0 0 0 0 0 0 0 0 0
0 0 0 0 0 0 0 0 0 0 0 0 0 0 0 0 0 0 0 0 0 0 0 0 0 0 0
0 0 0 0 0 0 0 0 0 0 0 -1 0 0 0 0 0 0 0 0 0 0 0 0 0 0 0
0 0 0 -1 0 0 0 0 0 0 0 0 0 0 0 0 0 0 0 0 0 0 0 0 0 0 0
0 0 0 0 0 0 0 0 0 0 0 0 0 0 0 0 0 0 0 0 0 0 0 0 0 0 0
0 0 0 0 0 0 0 0 -1 -1 0 0 -1 0 0 0 0 0 0 0 0 0 0 0 0 0 0
0 0 0 0 0 0 0 0 0 0 0 0 0 0 0 0 0 0 0 0 0 0 0 0 0 0 0
0 0 0 0 0 0 0 0 0 0 0 0 0 0 0 0 0 0 0 0 0 0 0 0 0 0 0
0 0 0 0 0 0 0 0 0 0 0 0 0 0 0 0 0 0 0 0 0 0 0 0 0 0 0
0 0 0 0 0 0 0 0 0 0 0 0 0 0 0 0 0 0 0 0 0 0 0 0 0 0 0
0 0 0 0 0 0 0 0 0 0 0 0 0 0 0 0 0 0 0 0 0 0 0 0 0 0 0
Wind_Speed
2 4 5 7 7 7 8 7 1 17 21 21 19 19 19 14 13 12 12 13 12 12 12 12 12 10 10
2 2 4 4 5 6 7 7 7 8 18 19 18 18 17 15 13 13 12 12 12 12 11 10 10 12 12
3 2 3 0 4 5 4 5 7 16 7 13 16 16 16 14 14 13 13 13 13 11 10 8 8 7 8
4 4 4 2 3 3 2 4 4 6 11 8 5 8 12 13 13 12 12 13 13 12 11 10 8 8 8
4 2 2 2 1 2 2 3 1 1 2 2 2 2 1 10 8 11 13 13 13 13 12 11 11 10 10
2 2 3 2 3 2 2 1 2 2 2 3 2 3 3 2 7 12 14 15 14 13 12 11 11 12 12
5 2 2 2 4 5 3 2 1 2 4 5 3 6 3 4 9 15 15 15 14 13 13 12 12 12 11
5 4 3 3 3 2 4 3 2 2 4 3 3 5 5 5 12 15 16 15 15 13 13 12 12 13 12
8 7 6 6 5 3 3 4 2 2 4 2 2 2 3 5 7 17 17 16 15 14 14 13 12 13 11
3 4 7 2 9 6 5 4 2 2 4 5 3 3 2 2 3 4 6 15 16 16 15 14 14 7 7
3 3 2 2 2 3 5 6 5 4 3 6 4 4 2 1 1 2 4 4 4 4 10 12 13 11 8
6 5 4 4 3 2 0 2 3 5 5 9 3 6 5 3 3 3 3 3 3 3 2 3 8 12 14
6 6 6 5 4 2 2 2 3 2 2 5 6 6 7 6 4 4 5 5 6 6 6 7 7 7 8
4 4 4 5 5 4 4 3 4 3 5 5 4 4 5 5 4 3 5 4 6 7 7 7 7 7 8
4 4 4 4 4 5 3 5 4 3 4 3 5 6 6 6 6 7 6 7 7 7 6 8 7 7 7
3 2 3 3 5 5 3 3 3 3 3 3 3 3 2 2 5 4 5 7 6 7 8 8 8 7 7
3 3 3 4 5 5 5 5 5 5 5 5 5 5 6 8 4 8 6 2 2 4 5 6 8 7 6
Wind_Direction
117 20 31 42 29 24 30 17 139 145 137 134 136 133 132 141 153 158 159 168 184 187 190 182 175 174 166
129 94 72 46 61 46 14 34 15 134 138 138 142 140 140 152 163 170 178 182 190 190 193 194 195 190 198
94 70 75 67 77 66 19 28 32 34 109 138 146 150 151 165 177 183 192 191 190 187 188 201 209 219 226
64 71 63 11 53 109 115 54 30 29 25 26 104 163 162 181 187 193 199 198 194 195 189 199 204 213 227
85 82 84 69 32 48 78 103 107 99 91 16 8 36 166 203 197 191 204 205 203 203 204 204 210 221 228
101 113 123 131 120 111 98 100 207 175 156 203 175 189 203 198 210 210 212 216 213 211 210 218 224 224 229
101 91 106 139 134 139 146 131 79 68 194 225 182 233 243 238 212 211 217 218 216 219 218 220 229 233 236
84 99 85 149 171 143 144 125 90 112 191 238 216 230 192 214 230 227 218 214 216 231 232 224 225 233 235
107 115 117 154 172 153 135 155 151 183 220 196 195 219 208 200 208 228 229 229 233 231 229 233 234 235 245
53 54 46 82 145 167 157 182 156 172 181 213 192 157 202 249 208 205 220 230 233 235 231 239 243 244 243
70 56 41 22 69 173 192 191 188 219 205 187 189 191 223 136 242 239 226 231 221 244 246 249 251 254 259
48 45 30 7 347 329 88 257 279 240 196 194 200 207 218 205 214 189 207 208 189 201 232 273 273 273 271
44 34 12 350 331 322 312 292 279 283 287 222 222 217 213 217 202 197 169 206 211 220 228 240 250 256 262
24 8 15 13 17 344 305 295 282 267 236 252 265 232 232 230 220 197 205 203 203 221 233 242 243 244 249
20 3 346 351 4 8 360 352 296 289 261 243 246 252 248 245 241 237 227 231 237 238 233 246 246 247 247
9 6 339 321 314 323 315 326 312 316 330 348 349 350 355 311 251 265 243 251 247 243 247 255 259 258 258
4 341 323 316 315 310 310 310 294 287 280 279 278 278 279 271 273 257 263 247 264 270 259 258 271 272 282